TimeCDT,TemperatureF,Dew PointF,Humidity,Sea Level PressureIn,VisibilityMPH,Wind Direction,Wind SpeedMPH,Gust SpeedMPH,PrecipitationIn,Events,Conditions,WindDirDegrees,DateUTC
12:15 AM,47.5,45.9,94,29.84,10.0,WNW,3.5,-,N/A,,Clear,300,2013-09-21 05:15:00
12:35 AM,47.1,45.1,93,29.84,10.0,WNW,4.6,-,N/A,,Clear,300,2013-09-21 05:35:00
12:55 AM,46.6,44.6,93,29.84,10.0,WNW,4.6,-,N/A,,Clear,300,2013-09-21 05:55:00
1:15 AM,46.2,44.2,93,29.84,10.0,WNW,4.6,-,N/A,,Clear,300,2013-09-21 06:15:00
1:35 AM,45.7,44.2,95,29.84,10.0,WNW,3.5,-,N/A,,Clear,290,2013-09-21 06:35:00
1:55 AM,45.5,43.7,93,29.84,10.0,WNW,4.6,-,N/A,,Clear,300,2013-09-21 06:55:00
2:15 AM,45.0,43.7,95,29.84,10.0,WNW,4.6,-,N/A,,Clear,300,2013-09-21 07:15:00
2:35 AM,44.6,43.5,96,29.84,10.0,WNW,3.5,-,N/A,,Clear,290,2013-09-21 07:35:00
2:55 AM,43.7,42.8,97,29.84,10.0,WNW,3.5,-,N/A,,Clear,290,2013-09-21 07:55:00
3:15 AM,44.2,43.7,98,29.85,10.0,West,4.6,-,N/A,,Mostly Cloudy,270,2013-09-21 08:15:00
3:35 AM,44.8,44.1,97,29.85,10.0,WNW,3.5,-,N/A,,Overcast,300,2013-09-21 08:35:00
3:55 AM,45.0,43.7,95,29.85,10.0,Calm,Calm,-,N/A,,Scattered Clouds,0,2013-09-21 08:55:00
4:15 AM,44.8,43.7,96,29.85,10.0,Calm,Calm,-,N/A,,Scattered Clouds,0,2013-09-21 09:15:00
4:35 AM,45.9,44.8,96,29.86,10.0,West,4.6,-,N/A,,Mostly Cloudy,280,2013-09-21 09:35:00
4:55 AM,46.4,45.0,95,29.85,10.0,West,4.6,-,N/A,,Overcast,280,2013-09-21 09:55:00
5:15 AM,46.8,45.1,94,29.85,10.0,West,4.6,-,N/A,,Overcast,280,2013-09-21 10:15:00
5:35 AM,46.8,45.5,95,29.86,10.0,WNW,4.6,-,N/A,,Overcast,290,2013-09-21 10:35:00
5:55 AM,47.3,45.5,93,29.86,10.0,WNW,5.8,-,N/A,,Overcast,300,2013-09-21 10:55:00
6:15 AM,47.3,45.3,93,29.87,10.0,NW,5.8,-,N/A,,Overcast,310,2013-09-21 11:15:00
6:35 AM,47.5,45.1,92,29.87,10.0,NW,5.8,-,N/A,,Overcast,310,2013-09-21 11:35:00
6:55 AM,47.5,45.1,92,29.87,10.0,NW,6.9,-,N/A,,Overcast,310,2013-09-21 11:55:00
7:15 AM,47.3,44.8,91,29.87,10.0,NW,8.1,-,N/A,,Overcast,310,2013-09-21 12:15:00
7:35 AM,47.3,44.6,90,29.88,10.0,NW,8.1,-,N/A,,Mostly Cloudy,320,2013-09-21 12:35:00
7:55 AM,47.8,44.6,89,29.88,10.0,NW,6.9,-,N/A,,Mostly Cloudy,320,2013-09-21 12:55:00
8:15 AM,48.2,44.6,87,29.88,10.0,NW,8.1,-,N/A,,Overcast,320,2013-09-21 13:15:00
8:35 AM,48.4,43.9,84,29.89,10.0,NNW,6.9,17.3,N/A,,Overcast,330,2013-09-21 13:35:00
8:55 AM,49.6,44.1,81,29.89,10.0,NW,8.1,-,N/A,,Mostly Cloudy,320,2013-09-21 13:55:00
9:15 AM,49.3,43.3,80,29.89,10.0,NNW,11.5,-,N/A,,Overcast,340,2013-09-21 14:15:00
9:35 AM,48.9,43.0,80,29.90,10.0,NNW,11.5,-,N/A,,Overcast,340,2013-09-21 14:35:00
9:55 AM,50.0,42.4,75,29.90,10.0,NNW,9.2,16.1,N/A,,Mostly Cloudy,340,2013-09-21 14:55:00
10:15 AM,50.0,41.7,73,29.90,10.0,North,9.2,-,N/A,,Mostly Cloudy,350,2013-09-21 15:15:00
10:35 AM,49.8,41.2,72,29.91,10.0,North,11.5,-,N/A,,Overcast,350,2013-09-21 15:35:00
10:55 AM,49.8,39.9,69,29.92,10.0,North,12.7,-,N/A,,Overcast,360,2013-09-21 15:55:00
11:15 AM,50.0,40.3,69,29.91,10.0,NW,11.5,18.4,N/A,,Overcast,320,2013-09-21 16:15:00
11:35 AM,49.8,39.9,69,29.91,10.0,North,11.5,17.3,N/A,,Overcast,360,2013-09-21 16:35:00
11:55 AM,50.5,40.5,68,29.92,10.0,NW,10.4,-,N/A,,Overcast,320,2013-09-21 16:55:00
12:15 PM,50.2,40.5,69,29.92,10.0,NW,10.4,-,N/A,,Overcast,320,2013-09-21 17:15:00
12:35 PM,50.4,40.5,69,29.92,10.0,NNW,11.5,-,N/A,,Overcast,330,2013-09-21 17:35:00
12:55 PM,50.4,40.5,69,29.92,10.0,NW,8.1,-,N/A,,Overcast,310,2013-09-21 17:55:00
1:15 PM,52.3,40.3,64,29.92,10.0,NW,8.1,-,N/A,,Mostly Cloudy,310,2013-09-21 18:15:00
1:35 PM,52.5,40.8,64,29.92,10.0,WNW,12.7,16.1,N/A,,Mostly Cloudy,300,2013-09-21 18:35:00
1:55 PM,52.9,40.5,63,29.91,10.0,West,5.8,-,N/A,,Mostly Cloudy,280,2013-09-21 18:55:00
2:15 PM,54.1,41.0,61,29.91,10.0,WNW,9.2,-,N/A,,Mostly Cloudy,290,2013-09-21 19:15:00
2:35 PM,54.9,40.5,58,29.91,10.0,NW,9.2,-,N/A,,Scattered Clouds,320,2013-09-21 19:35:00
2:55 PM,55.0,40.5,58,29.90,10.0,North,9.2,-,N/A,,Scattered Clouds,10,2013-09-21 19:55:00
3:15 PM,57.2,41.2,55,29.89,10.0,NW,5.8,-,N/A,,Scattered Clouds,310,2013-09-21 20:15:00
3:35 PM,57.4,41.2,55,29.90,10.0,WNW,6.9,-,N/A,,Mostly Cloudy,300,2013-09-21 20:35:00
3:55 PM,57.9,41.4,54,29.89,10.0,NW,10.4,-,N/A,,Scattered Clouds,320,2013-09-21 20:55:00
4:15 PM,57.7,40.6,53,29.89,10.0,NNW,5.8,9.2,N/A,,Scattered Clouds,330,2013-09-21 21:15:00
4:35 PM,57.0,40.8,55,29.89,10.0,NW,6.9,-,N/A,,Scattered Clouds,320,2013-09-21 21:35:00
4:55 PM,57.2,41.4,55,29.89,10.0,North,5.8,-,N/A,,Clear,350,2013-09-21 21:55:00
5:15 PM,57.6,41.7,56,29.90,10.0,North,5.8,-,N/A,,Clear,350,2013-09-21 22:15:00
5:35 PM,57.0,41.9,57,29.90,10.0,North,9.2,-,N/A,,Scattered Clouds,360,2013-09-21 22:35:00
5:55 PM,56.3,41.4,57,29.90,10.0,North,8.1,-,N/A,,Scattered Clouds,360,2013-09-21 22:55:00
6:15 PM,55.2,41.5,60,29.90,10.0,North,5.8,-,N/A,,Scattered Clouds,350,2013-09-21 23:15:00
6:35 PM,53.4,41.9,65,29.91,10.0,North,4.6,-,N/A,,Clear,350,2013-09-21 23:35:00
6:55 PM,50.7,42.3,73,29.91,10.0,Calm,Calm,-,N/A,,Clear,0,2013-09-21 23:55:00
7:15 PM,48.4,42.6,80,29.91,10.0,Calm,Calm,-,N/A,,Clear,0,2013-09-22 00:15:00
7:35 PM,45.7,42.3,88,29.92,10.0,Calm,Calm,-,N/A,,Clear,0,2013-09-22 00:35:00
7:55 PM,44.8,42.6,92,29.93,10.0,Calm,Calm,-,N/A,,Clear,0,2013-09-22 00:55:00
8:15 PM,44.6,42.3,91,29.94,10.0,Calm,Calm,-,N/A,,Clear,0,2013-09-22 01:15:00
8:35 PM,44.1,41.7,91,29.95,10.0,ENE,3.5,-,N/A,,Clear,60,2013-09-22 01:35:00
8:55 PM,42.6,41.0,94,29.95,10.0,Calm,Calm,-,N/A,,Clear,0,2013-09-22 01:55:00
9:15 PM,43.2,40.8,91,29.95,10.0,East,4.6,-,N/A,,Clear,80,2013-09-22 02:15:00
9:35 PM,43.3,40.3,89,29.97,10.0,Calm,Calm,-,N/A,,Clear,0,2013-09-22 02:35:00
9:55 PM,43.0,40.8,92,29.97,10.0,Calm,Calm,-,N/A,,Clear,0,2013-09-22 02:55:00
10:15 PM,39.7,38.1,94,29.98,10.0,Calm,Calm,-,N/A,,Clear,0,2013-09-22 03:15:00
10:35 PM,38.5,37.6,97,29.98,10.0,Calm,Calm,-,N/A,,Clear,0,2013-09-22 03:35:00
10:55 PM,38.5,37.6,97,29.99,10.0,Calm,Calm,-,N/A,,Clear,0,2013-09-22 03:55:00
11:15 PM,35.6,35.1,98,29.99,10.0,Calm,Calm,-,N/A,,Clear,0,2013-09-22 04:15:00
11:35 PM,35.8,35.1,97,29.99,10.0,Calm,Calm,-,N/A,,Clear,0,2013-09-22 04:35:00
11:55 PM,33.4,32.7,97,29.99,10.0,Calm,Calm,-,N/A,,Clear,0,2013-09-22 04:55:00